EW9733 Weather Reports


Display with metric or nautical units.
time (UTC)temp
F
wind
direction
speed
MPH
gust
MPH
rain 1hr
in
rain 24hr
in
rain mn
in
humidity
%
barometer
mb
20260902154550 73 71 2.0 8.0 0.00 0.03 0.01 64 1021.0
20260902153048 72 81 0.0 8.0 0.00 0.03 0.01 67 1020.9
20260902151544 72 29 2.0 7.0 0.00 0.03 0.01 69 1020.9
20260902150039 72 11 0.0 5.0 0.01 0.03 0.01 74 1021.0
20260902144535 70 87 1.0 5.0 0.01 0.03 0.01 77 1020.8
20260902143030 69 186 1.0 6.0 0.01 0.03 0.01 80 1020.7
20260902141535 69 30 3.0 9.0 0.01 0.03 0.01 80 1020.5
20260902140024 68 82 2.0 6.0 0.00 0.02 0.00 82 1020.2
20260902134520 67 67 2.0 8.0 0.00 0.05 0.00 84 1020.3
20260902133017 66 57 0.0 5.0 0.00 0.05 0.00 89 1020.3
20260902131521 65 163 0.0 3.0 0.00 0.05 0.00 92 1020.5
20260902130010 65 57 1.0 4.0 0.00 0.05 0.00 93 1020.3
20260902124508 64 70 0.0 2.0 0.00 0.05 0.00 94 1020.5
20260902123005 64 122 0.0 2.0 0.00 0.05 0.00 94 1020.4
20260902121501 64 120 0.0 1.0 0.00 0.05 0.00 94 1020.5
20260902120057 62 121 0.0 0.0 0.00 0.05 0.00 94 1020.8
20260902114554 62 121 0.0 0.0 0.00 0.05 0.00 94 1020.8
20260902113106 61 121 0.0 0.0 0.00 0.05 0.00 94 1020.5
20260902111556 61 121 0.0 0.0 0.00 0.05 0.00 94 1020.4
20260902110022 61 121 0.0 0.0 0.00 0.05 0.00 94 1020.2
20260902104534 60 121 0.0 0.0 0.00 0.05 0.00 94 1019.9
20260902103016 60 121 0.0 0.0 0.00 0.05 0.00 93 1019.7
20260902101514 60 121 0.0 0.0 0.00 0.05 0.00 93 1019.6
20260902100013 60 121 0.0 0.0 0.00 0.05 0.00 93 1019.5
20260902094518 59 121 0.0 0.0 0.00 0.05 0.00 93 1019.6
20260902093011 59 121 0.0 0.0 0.00 0.05 0.00 93 1019.5
20260902091508 60 121 0.0 0.0 0.00 0.05 0.00 93 1019.4
20260902090007 60 121 0.0 0.0 0.00 0.05 0.00 93 1019.2
20260902084505 60 121 0.0 0.0 0.00 0.05 0.00 93 1019.0
20260902083004 61 121 0.0 0.0 0.00 0.05 0.00 93 1019.2
20260902081513 61 121 0.0 0.0 0.00 0.05 0.00 93 1019.1
20260902080005 61 121 0.0 0.0 0.00 0.05 0.00 93 1019.2
20260902074501 61 121 0.0 0.0 0.00 0.05 0.00 93 1019.3
20260902073101 61 121 0.0 0.0 0.00 0.05 0.00 93 1019.2
20260902071601 61 121 0.0 0.0 0.00 0.05 0.00 93 1019.0
20260902070104 61 121 0.0 0.0 0.00 0.05 0.00 93 1019.0
20260902064605 61 121 0.0 0.0 0.00 0.05 0.00 93 1019.0
20260902063057 61 121 0.0 0.0 0.00 0.05 0.00 93 1019.0
20260902061612 61 121 0.0 0.0 0.00 0.05 0.00 93 1019.0
20260902060058 61 121 0.0 0.0 0.00 0.05 0.00 93 1019.2
20260902054601 61 121 0.0 0.0 0.00 0.05 0.00 92 1019.1
20260902053055 61 121 0.0 0.0 0.00 0.05 0.00 92 1019.1
20260902051556 61 121 0.0 0.0 0.00 0.05 0.00 92 1019.0
20260902050100 61 121 0.0 0.0 0.00 0.05 0.00 92 1018.8
20260902044548 61 121 0.0 0.0 0.00 0.05 0.00 92 1018.6
20260902043045 61 121 0.0 0.0 0.00 0.05 0.00 92 1018.1
20260902041556 61 121 0.0 0.0 0.00 0.05 0.00 92 1017.9
20260902040042 61 121 0.0 0.0 0.00 0.05 0.00 92 1018.2
20260902034544 61 121 0.0 0.0 0.00 0.05 0.05 92 1018.0
20260902033045 61 121 0.0 0.0 0.00 0.05 0.05 91 1017.7
20260902031540 61 121 0.0 0.0 0.00 0.05 0.05 91 1018.0
20260902030041 61 121 0.0 0.0 0.00 0.05 0.05 91 1018.1
20260902024542 61 121 0.0 0.0 0.00 0.05 0.05 90 1018.0
20260902023037 61 121 0.0 0.0 0.00 0.05 0.05 90 1018.0
20260902021546 62 121 0.0 0.0 0.00 0.05 0.05 90 1017.8
20260902020034 62 121 0.0 0.0 0.00 0.05 0.05 90 1018.0
20260902014537 63 121 0.0 0.0 0.00 0.05 0.05 90 1017.9
20260902013032 63 121 0.0 0.0 0.00 0.05 0.05 90 1017.7
20260902011536 63 121 0.0 0.0 0.00 0.05 0.05 89 1017.8
20260902010042 63 121 0.0 0.0 0.00 0.05 0.05 89 1017.7
20260902004533 64 121 0.0 0.0 0.00 0.05 0.05 89 1017.3
20260902003025 64 121 0.0 0.0 0.00 0.05 0.05 89 1017.3
20260902001524 64 121 0.0 0.0 0.00 0.05 0.05 88 1017.4
20260902000036 64 121 0.0 0.0 0.00 0.05 0.05 88 1017.6
20260901234546 65 121 0.0 0.0 0.00 0.05 0.05 88 1017.4
20260901233019 65 121 0.0 0.0 0.00 0.05 0.05 88 1017.3
20260901231519 65 121 0.0 0.0 0.00 0.05 0.05 87 1017.3
20260901230017 65 121 0.0 0.0 0.00 0.05 0.05 87 1017.1
20260901224517 66 121 0.0 0.0 0.00 0.05 0.05 86 1017.1
20260901223027 66 120 0.0 2.0 0.00 0.05 0.05 86 1017.1
20260901221522 66 120 0.0 1.0 0.00 0.05 0.05 86 1017.2
20260901220018 66 119 0.0 0.0 0.00 0.05 0.05 85 1017.3
20260901214512 66 119 0.0 1.0 0.00 0.05 0.05 84 1017.1
20260901213011 67 119 0.0 0.0 0.00 0.05 0.05 84 1017.1
20260901211513 67 119 0.0 0.0 0.00 0.05 0.05 84 1017.0
20260901210010 67 119 0.0 0.0 0.00 0.05 0.05 83 1016.9
20260901204508 66 119 0.0 1.0 0.00 0.05 0.05 84 1016.8
20260901203017 67 119 0.0 2.0 0.00 0.05 0.05 84 1016.6
20260901201508 66 119 0.0 4.0 0.00 0.05 0.05 84 1016.5
20260901200020 67 117 0.0 1.0 0.00 0.05 0.05 85 1016.5
20260901194507 67 124 0.0 2.0 0.00 0.05 0.05 86 1016.5
20260901193007 66 123 0.0 4.0 0.00 0.05 0.05 85 1016.5
20260901191512 67 133 0.0 2.0 0.00 0.05 0.05 87 1016.4
20260901190017 67 132 0.0 3.0 0.01 0.05 0.05 87 1016.3
20260901184505 68 136 0.0 6.0 0.01 0.05 0.05 87 1016.3
20260901183013 68 121 0.0 3.0 0.01 0.05 0.05 87 1016.2
20260901181505 68 82 0.0 1.0 0.01 0.05 0.05 87 1016.1
20260901180003 68 82 0.0 0.0 0.00 0.04 0.04 86 1016.0
20260901174504 69 82 0.0 1.0 0.00 0.04 0.04 85 1015.9
20260901173003 70 96 0.0 3.0 0.00 0.04 0.04 86 1015.7
20260901171502 70 61 0.0 5.0 0.00 0.04 0.04 84 1016.0
20260901170104 70 46 1.0 5.0 0.00 0.04 0.04 82 1016.1
20260901164633 71 71 0.0 2.0 0.00 0.04 0.04 81 1016.0
20260901163100 71 89 0.0 5.0 0.01 0.04 0.04 82 1015.7
20260901161600 71 147 0.0 2.0 0.01 0.04 0.04 83 1016.0
20260901160100 71 101 0.0 5.0 0.01 0.04 0.04 84 1016.0